Location: Arrien
(43.3167°N, 0.1500°W)
Time: 11:57:59
(UTC+00:00)

Cosmos 2082 - Pass Details

Date: 22 May 2022
Orbit: 835 x 853 km, 71.0° (Epoch: 28 June)

Event Time Altitude Azimuth Distance (km) Brightness Sun altitude
Rises 22:33:05 0° 326° (NW) 3,399 8.2 -23.3°
Reaches altitude 10° 22:35:46 10° 316° (NW) 2,458 7.0 -23.5°
Maximum altitude 22:40:39 31° 256° (WSW) 1,426 4.9 -23.8°
Enters shadow 22:42:08 27° 228° (SW) 1,549 4.8 -23.9°
